When you browse on this site, cookies collect data to enhance your experience and personalize the content and advertising you see.
Visit our Privacy Policy to learn more. By continuing to use the site, you agree to this use of cookies and data.
  • In Romania
  • List of Countries
  • For 7 days
  • Water Temperature
  • Satellite Maps
  • Weather Map
  • Weather Widgets
  • user-avatar
    Login

    Hourly Weather Encamp

    Today, 22 March, Friday

    Time Temperature Precipitation Wind Pressure Humidity
    00:00 0°C° 0 mm 1 mps 627 mmHg 55%
    01:00 0°C° 0 mm 1 mps 627 mmHg 54%
    02:00 0°C° 0 mm 1 mps 626 mmHg 52%
    03:00 0°C° 0 mm 1 mps 626 mmHg 51%
    04:00 0°C° 0 mm 1 mps 626 mmHg 52%
    05:00 0°C° 0 mm 1 mps 626 mmHg 52%
    06:00 0°C° 0 mm 1 mps 627 mmHg 53%
    07:00 +3°C° 0 mm 1 mps 628 mmHg 49%
    08:00 +6°C° 0 mm 1 mps 629 mmHg 45%
    09:00 +9°C° 0 mm 1 mps 630 mmHg 42%
    10:00 +10°C° 0 mm 1 mps 631 mmHg 40%
    11:00 +11°C° 0 mm 1 mps 631 mmHg 39%
    12:00 +12°C° 0 mm 1 mps 631 mmHg 38%
    13:00 +11°C° 0.1 mm 1 mps 631 mmHg 41%
    14:00 +11°C° 0.1 mm 1 mps 630 mmHg 45%
    15:00 +10°C° 0.1 mm 1 mps 630 mmHg 48%
    16:00 +9°C° 0.2 mm 1 mps 629 mmHg 54%
    17:00 +6°C° 0.2 mm 0 mps 628 mmHg 60%
    18:00 +5°C° 0.2 mm 0 mps 628 mmHg 66%
    19:00 +4°C° 0 mm 0 mps 628 mmHg 69%
    20:00 +3°C° 0 mm 0 mps 628 mmHg 73%
    21:00 +3°C° 0 mm 1 mps 628 mmHg 76%
    22:00 +3°C° 0 mm 1 mps 627 mmHg 76%
    23:00 +3°C° 0 mm 1 mps 627 mmHg 76%

    Tomorrow, 23 March, Saturday

    Time Temperature Precipitation Wind Pressure Humidity
    00:00 +2°C° 0 mm 1 mps 627 mmHg 76%
    01:00 +2°C° 0 mm 1 mps 627 mmHg 76%
    02:00 +2°C° 0 mm 1 mps 627 mmHg 75%
    03:00 +2°C° 0 mm 1 mps 627 mmHg 75%
    04:00 +2°C° 0 mm 1 mps 627 mmHg 74%
    05:00 +2°C° 0 mm 1 mps 627 mmHg 73%
    06:00 +2°C° 0 mm 1 mps 627 mmHg 72%
    07:00 +5°C° 0 mm 1 mps 628 mmHg 63%
    08:00 +7°C° 0 mm 1 mps 629 mmHg 53%
    09:00 +9°C° 0 mm 0 mps 630 mmHg 44%
    10:00 +11°C° 0 mm 1 mps 631 mmHg 41%
    11:00 +13°C° 0 mm 1 mps 631 mmHg 38%
    12:00 +14°C° 0 mm 1 mps 631 mmHg 35%
    13:00 +13°C° 0 mm 1 mps 631 mmHg 37%
    14:00 +13°C° 0 mm 1 mps 630 mmHg 38%
    15:00 +13°C° 0 mm 1 mps 630 mmHg 39%
    16:00 +11°C° 0 mm 1 mps 629 mmHg 47%
    17:00 +9°C° 0 mm 1 mps 628 mmHg 55%
    18:00 +7°C° 0 mm 1 mps 627 mmHg 63%
    19:00 +7°C° 0 mm 1 mps 627 mmHg 67%
    20:00 +6°C° 0 mm 1 mps 627 mmHg 70%
    21:00 +5°C° 0 mm 1 mps 627 mmHg 74%
    22:00 +4°C° 0 mm 1 mps 627 mmHg 74%
    23:00 +4°C° 0 mm 1 mps 627 mmHg 74%

    Day after tomorrow, 24 March, Sunday

    Time Temperature Precipitation Wind Pressure Humidity
    00:00 +4°C° 0 mm 1 mps 627 mmHg 74%
    01:00 +4°C° 0 mm 1 mps 626 mmHg 71%
    02:00 +4°C° 0 mm 1 mps 626 mmHg 69%
    03:00 +3°C° 0 mm 1 mps 626 mmHg 67%
    04:00 +3°C° 0 mm 1 mps 626 mmHg 66%
    05:00 +3°C° 0 mm 1 mps 626 mmHg 65%
    06:00 +3°C° 0 mm 1 mps 626 mmHg 64%
    07:00 +5°C° 0 mm 1 mps 627 mmHg 57%
    08:00 +8°C° 0 mm 1 mps 628 mmHg 49%
    09:00 +11°C° 0 mm 1 mps 630 mmHg 41%
    10:00 +12°C° 0 mm 1 mps 630 mmHg 40%
    11:00 +13°C° 0 mm 1 mps 630 mmHg 39%
    12:00 +14°C° 0 mm 1 mps 630 mmHg 38%
    13:00 +13°C° 0 mm 1 mps 630 mmHg 41%
    14:00 +13°C° 0 mm 1 mps 629 mmHg 44%
    15:00 +12°C° 0 mm 1 mps 629 mmHg 47%
    16:00 +11°C° 0.2 mm 1 mps 628 mmHg 55%
    17:00 +9°C° 0.2 mm 1 mps 627 mmHg 64%
    18:00 +8°C° 0.2 mm 1 mps 627 mmHg 73%
    19:00 +7°C° 0 mm 1 mps 627 mmHg 77%
    20:00 +5°C° 0 mm 1 mps 627 mmHg 82%
    21:00 +4°C° 0 mm 1 mps 626 mmHg 87%
    22:00 +4°C° 0 mm 1 mps 626 mmHg 88%
    23:00 +4°C° 0 mm 1 mps 626 mmHg 89%

    25 March, Monday

    Time Temperature Precipitation Wind Pressure Humidity
    00:00 +4°C° 0 mm 1 mps 626 mmHg 90%
    01:00 +4°C° 0 mm 1 mps 626 mmHg 91%
    02:00 +4°C° 0 mm 1 mps 626 mmHg 92%
    03:00 +4°C° 0 mm 1 mps 625 mmHg 92%
    04:00 +3°C° 0 mm 1 mps 625 mmHg 92%
    05:00 +3°C° 0 mm 1 mps 625 mmHg 93%
    06:00 +3°C° 0 mm 1 mps 625 mmHg 93%
    07:00 +5°C° 0 mm 1 mps 626 mmHg 82%
    08:00 +8°C° 0 mm 1 mps 627 mmHg 72%
    09:00 +10°C° 0 mm 1 mps 628 mmHg 61%
    10:00 +10°C° 0.1 mm 1 mps 628 mmHg 59%
    11:00 +11°C° 0.1 mm 1 mps 628 mmHg 57%
    12:00 +12°C° 0.1 mm 1 mps 628 mmHg 55%
    13:00 +11°C° 0.4 mm 1 mps 628 mmHg 59%
    14:00 +10°C° 0.4 mm 1 mps 627 mmHg 64%
    15:00 +9°C° 0.4 mm 1 mps 626 mmHg 69%
    16:00 +8°C° 0.3 mm 1 mps 626 mmHg 74%
    17:00 +7°C° 0.3 mm 1 mps 625 mmHg 79%
    18:00 +7°C° 0.3 mm 1 mps 625 mmHg 84%
    19:00 +6°C° 0 mm 1 mps 625 mmHg 87%
    20:00 +5°C° 0 mm 1 mps 625 mmHg 90%
    21:00 +5°C° 0 mm 1 mps 625 mmHg 92%
    22:00 +4°C° 0 mm 1 mps 625 mmHg 92%
    23:00 +3°C° 0 mm 1 mps 625 mmHg 92%

    26 March, Tuesday

    Time Temperature Precipitation Wind Pressure Humidity
    00:00 +3°C° 0 mm 1 mps 625 mmHg 92%
    01:00 +2°C° 0 mm 1 mps 624 mmHg 90%
    02:00 +2°C° 0 mm 1 mps 624 mmHg 88%
    03:00 +2°C° 0 mm 1 mps 624 mmHg 87%
    04:00 -1°C° 0 mm 2 mps 624 mmHg 86%
    05:00 -1°C° 0 mm 2 mps 624 mmHg 85%
    06:00 -1°C° 0 mm 2 mps 624 mmHg 84%
    07:00 +4°C° 0 mm 1 mps 625 mmHg 69%
    08:00 +7°C° 0 mm 1 mps 627 mmHg 53%
    09:00 +10°C° 0 mm 1 mps 628 mmHg 38%
    10:00 +12°C° 0 mm 1 mps 629 mmHg 35%
    11:00 +13°C° 0 mm 1 mps 630 mmHg 32%
    12:00 +15°C° 0 mm 1 mps 630 mmHg 29%
    13:00 +14°C° 0 mm 1 mps 630 mmHg 32%
    14:00 +14°C° 0 mm 1 mps 630 mmHg 35%
    15:00 +14°C° 0 mm 1 mps 629 mmHg 38%
    16:00 +12°C° 0 mm 1 mps 629 mmHg 47%
    17:00 +10°C° 0 mm 1 mps 628 mmHg 57%
    18:00 +7°C° 0 mm 1 mps 628 mmHg 66%
    19:00 +6°C° 0 mm 1 mps 628 mmHg 73%
    20:00 +4°C° 0 mm 2 mps 628 mmHg 81%
    21:00 +3°C° 0 mm 2 mps 628 mmHg 88%
    22:00 +3°C° 0 mm 2 mps 628 mmHg 88%
    23:00 +2°C° 0 mm 2 mps 628 mmHg 88%

    27 March, Wednesday

    Time Temperature Precipitation Wind Pressure Humidity
    00:00 +2°C° 0 mm 2 mps 628 mmHg 88%
    01:00 +2°C° 0 mm 2 mps 628 mmHg 83%
    02:00 +2°C° 0 mm 2 mps 628 mmHg 77%
    03:00 +2°C° 0 mm 2 mps 628 mmHg 71%
    04:00 +1°C° 0 mm 2 mps 628 mmHg 67%
    05:00 +1°C° 0 mm 2 mps 628 mmHg 63%
    06:00 +1°C° 0 mm 2 mps 628 mmHg 59%
    07:00 +4°C° 0 mm 2 mps 629 mmHg 51%
    08:00 +6°C° 0 mm 2 mps 630 mmHg 43%
    09:00 +9°C° 0 mm 2 mps 631 mmHg 35%
    10:00 +10°C° 0 mm 2 mps 632 mmHg 34%
    11:00 +12°C° 0 mm 2 mps 632 mmHg 33%
    12:00 +14°C° 0 mm 2 mps 632 mmHg 32%
    13:00 +14°C° 0 mm 2 mps 632 mmHg 32%
    14:00 +13°C° 0 mm 2 mps 632 mmHg 33%
    15:00 +13°C° 0 mm 2 mps 631 mmHg 34%
    16:00 +10°C° 0 mm 2 mps 631 mmHg 41%
    17:00 +8°C° 0 mm 2 mps 630 mmHg 47%
    18:00 +7°C° 0 mm 1 mps 629 mmHg 54%
    19:00 +6°C° 0 mm 1 mps 629 mmHg 56%
    20:00 +5°C° 0 mm 1 mps 629 mmHg 59%
    21:00 +3°C° 0 mm 1 mps 628 mmHg 61%
    22:00 +3°C° 0 mm 1 mps 628 mmHg 60%
    23:00 +4°C° 0 mm 1 mps 628 mmHg 59%
    Show more